User: anonymous   Login
Location: Unspecified
(0.0000°N, 0.0000°E)
Time: 07:42:43
(UTC+00:00)
Language:

SR - Orbit

View from above orbital plane
View from above orbital plane
View from above satellite
View from above satellite

Ground track
Ground track

The orbit data is extracted from the following two-line orbital elements,

1 00046U 60007B   16343.25668356  .00000212  00000-0  65323-4 0  9999
2 00046  66.6910 283.8299 0209899   8.5267 351.9315 14.48971681952592
Epoch (UTC): 08 December 2016 06:09:37
Eccentricity: 0.0209899
inclination: 66.6910°
perigee height: 580 km
apogee height: 878 km
right ascension of ascending node: 283.8299°
argument of perigee: 8.5267°
revolutions per day: 14.48971681
mean anomaly at epoch: 351.9315°
orbit number at epoch: 95259

The dashed part of the orbit path shows where the satellite is in the earth's shadow,  

DLR